sat.trackr.live / text

‹ back to catalog

HULIANWANG DIGUI-55

NORAD 65112 · 2025-168G

PAYLOAD ACTIVE UNKNOWN

§ Identity

Operator
Country
PRC
Launch date
2025-08-04
Launch site
WSC
Launch vehicle
Mass (kg)
RCS (m²)

External: N2YO · Heavens-Above · Gunter

§ Orbital elements

Epoch: 2026-05-25T04:33:01.014048Z

Period
108.33 min
Inclination
50.0006°
Eccentricity
0.0012192
Mean motion
13.29318225 rev/d
Perigee alt
1,140.2 km
Apogee alt
1,158.5 km
Semi-major
7,527.5 km
B*
9.1347e-5
RAAN
47.9911°
Arg perigee
24.7648°
Mean anomaly
335.3808°
Rev number
3,963

§ Raw data

HULIANWANG DIGUI-551 65112U 25168G   26145.18959507 -.00000082  00000+0  91347-4 0  99972 65112  50.0006  47.9911 0012192  24.7648 335.3808 13.29318225 39632

JSON: /api/v1/satellites/65112 · /tle

For live sub-satellite position, see the globe view (requires WebGL).

§ Visibility from observer

Set your observer location to see the next 7 days of passes ≥ 10°. The values pass through the URL so the page stays shareable.

No JS? Fill the form by hand. The geolocation button needs JavaScript.